Weather History for Andrews, NC

Change the Weather History Date:

Sunday, August 25, 2013

  Actual Average (KTYS) Record (KTYS)
Temperature  
Mean Temperature 67 °F 77 °F  
Max Temperature 80 °F 87 °F 99 °F (1943)
Min Temperature 54 °F 67 °F 53 °F (1891)
Degree Days  
Heating Degree Days 0 0  
Month to date heating degree days 0  
Since 1 June heating degree days 4  
Since 1 July heating degree days 0  
Cooling Degree Days 2 12  
Month to date cooling degree days 322  
Year to date cooling degree days 1206  
Since 1 June cooling degree days 1044  
Growing Degree Days 17 (Base 50)    
Moisture  
Dew Point 61 °F    
Average Humidity 81    
Maximum Humidity 99    
Minimum Humidity 54    
Precipitation  
Precipitation 0.00 in 0.09 in 1.44 in (1941)
Month to date precipitation 2.75  
Year to date precipitation 33.08  
Snow  
Snow 0.00 in 0.00 in - ()
Month to date snowfall 0.0  
Since 1 June snowfall 0.0  
Since 1 July snowfall 0.0  
Snow Depth -    
Sea Level Pressure  
Sea Level Pressure 30.35 in    
Wind  
Wind Speed 1 mph (WSW)    
Max Wind Speed 7 mph    
Max Gust Speed -    
Visibility 10 miles    
Events      
T = Trace of Precipitation, MM = Missing Value Source: NWS Daily Summary

Daily Weather History Graph

Daily Weather History Graph

Search for Another Location

Airport:

Trip Planner

Search our weather history database for the weather conditions in past years. The results will help you decide how hot, cold, wet, or windy it might be!

Date:

Astronomy

Aug. 25, 2013 Rise Set
Actual Time 7:02 AM EDT 8:11 PM EDT
Civil Twilight 6:36 AM EDT 8:37 PM EDT
Nautical Twilight 6:05 AM EDT 9:08 PM EDT
Astronomical Twilight 5:32 AM EDT 9:41 PM EDT
Moon 10:56 PM EDT (8/25) 11:50 AM EDT (8/25)
Length of Visible Light 14h 00m
Length of Day
13h 08m
Waning Gibbous, 76% of the Moon is Illuminated
Aug 25
Waning Gibbous
Aug 28
Last Quarter
Sep 5
New
Sep 12
First Quarter
Sep 19
Full

Hourly Weather History & Observations

Time (EDT) Temp. Heat Index Dew Point Humidity Pressure Visibility Wind Dir Wind Speed Gust Speed Precip Events Conditions
12:15 AM 65.7 °F - 64.8 °F 97% 30.32 in 10.0 mi Calm Calm - N/A   Clear
12:35 AM 64.9 °F - 64.4 °F 98% 30.32 in 10.0 mi Calm Calm - N/A   Clear
12:55 AM 63.7 °F - 63.0 °F 97% 30.33 in 10.0 mi Calm Calm - N/A   Clear
1:15 AM 62.6 °F - 62.1 °F 98% 30.34 in 7.0 mi Calm Calm - N/A   Clear
1:35 AM 61.7 °F - 61.0 °F 97% 30.34 in 10.0 mi Calm Calm - N/A   Clear
1:55 AM 61.0 °F - 60.1 °F 97% 30.34 in 10.0 mi Calm Calm - N/A   Clear
2:15 AM 60.8 °F - 59.7 °F 96% 30.34 in 10.0 mi Calm Calm - N/A   Clear
2:35 AM 59.9 °F - 59.2 °F 97% 30.34 in 10.0 mi Calm Calm - N/A   Clear
2:55 AM 60.1 °F - 59.0 °F 96% 30.34 in 10.0 mi Calm Calm - N/A   Clear
3:15 AM 59.0 °F - 58.1 °F 97% 30.35 in 10.0 mi Calm Calm - N/A   Clear
3:35 AM 58.5 °F - 57.9 °F 98% 30.35 in 10.0 mi Calm Calm - N/A   Clear
3:55 AM 58.3 °F - 57.6 °F 97% 30.35 in 10.0 mi NNE 3.5 mph - N/A   Clear
4:15 AM 58.1 °F - 57.2 °F 97% 30.35 in 10.0 mi Calm Calm - N/A   Mostly Cloudy
4:35 AM 57.6 °F - 56.8 °F 97% 30.35 in 10.0 mi Calm Calm - N/A   Mostly Cloudy
4:55 AM 57.4 °F - 56.8 °F 98% 30.35 in 10.0 mi Calm Calm - N/A   Scattered Clouds
5:15 AM 56.7 °F - 56.3 °F 99% 30.35 in 10.0 mi Calm Calm - N/A   Clear
5:35 AM 57.2 °F - 56.7 °F 98% 30.36 in 10.0 mi Calm Calm - N/A   Clear
5:55 AM 56.3 °F - 55.6 °F 97% 30.36 in 10.0 mi Calm Calm - N/A   Clear
6:15 AM 55.6 °F - 55.4 °F 99% 30.36 in 7.0 mi Calm Calm - N/A   Clear
6:35 AM 55.0 °F - 54.7 °F 99% 30.37 in 7.0 mi Calm Calm - N/A   Clear
6:55 AM 54.9 °F - 54.5 °F 99% 30.38 in 7.0 mi Calm Calm - N/A   Clear
7:15 AM 54.7 °F - 54.3 °F 99% 30.38 in 7.0 mi Calm Calm - N/A   Clear
7:35 AM 54.9 °F - 54.5 °F 99% 30.39 in 7.0 mi Calm Calm - N/A   Clear
7:55 AM 56.3 °F - 55.4 °F 97% 30.40 in 10.0 mi Calm Calm - N/A   Clear
8:15 AM 57.7 °F - 56.5 °F 96% 30.40 in 10.0 mi Calm Calm - N/A   Clear
8:35 AM 59.0 °F - 57.0 °F 93% 30.40 in 10.0 mi Calm Calm - N/A   Clear
8:55 AM 60.3 °F - 57.4 °F 90% 30.41 in 10.0 mi Calm Calm - N/A   Clear
9:15 AM 62.4 °F - 58.1 °F 86% 30.42 in 10.0 mi ESE 3.5 mph - N/A   Clear
9:35 AM 64.4 °F - 58.5 °F 81% 30.42 in 10.0 mi Calm Calm - N/A   Clear
9:55 AM 66.0 °F - 59.0 °F 78% 30.42 in 10.0 mi Calm Calm - N/A   Scattered Clouds
10:15 AM 68.2 °F - 59.5 °F 74% 30.41 in 10.0 mi Calm Calm - N/A   Scattered Clouds
10:35 AM 70.3 °F - 56.8 °F 62% 30.41 in 10.0 mi Calm Calm - N/A   Clear
10:55 AM 71.8 °F - 56.1 °F 58% 30.41 in 10.0 mi Calm Calm - N/A   Clear
11:15 AM 72.0 °F - 57.0 °F 59% 30.40 in 10.0 mi Calm Calm - N/A   Clear
11:35 AM 73.4 °F - 57.9 °F 58% 30.40 in 10.0 mi WSW 4.6 mph - N/A   Clear
11:55 AM 73.8 °F - 60.1 °F 62% 30.40 in 10.0 mi WSW 3.5 mph - N/A   Clear
12:15 PM 74.3 °F - 60.1 °F 61% 30.39 in 10.0 mi Calm Calm - N/A   Clear
12:35 PM 75.0 °F - 59.5 °F 58% 30.39 in 10.0 mi Calm Calm - N/A   Clear
12:55 PM 76.3 °F - 61.2 °F 59% 30.37 in 10.0 mi Calm Calm - N/A   Clear
1:15 PM 76.6 °F - 62.1 °F 61% 30.36 in 10.0 mi WSW 4.6 mph - N/A   Clear
1:35 PM 77.4 °F - 62.1 °F 59% 30.36 in 10.0 mi WSW 4.6 mph - N/A   Clear
1:55 PM 77.5 °F - 62.2 °F 59% 30.35 in 10.0 mi Calm Calm - N/A   Scattered Clouds
2:15 PM 78.1 °F - 60.8 °F 55% 30.34 in 10.0 mi Calm Calm - N/A   Scattered Clouds
2:35 PM 77.7 °F - 61.3 °F 57% 30.33 in 10.0 mi WNW 4.6 mph - N/A   Mostly Cloudy
2:55 PM 78.6 °F - 62.6 °F 58% 30.32 in 10.0 mi Calm Calm - N/A   Scattered Clouds
3:15 PM 79.7 °F - 63.7 °F 58% 30.31 in 10.0 mi West 6.9 mph - N/A   Mostly Cloudy
3:35 PM 78.3 °F - 61.9 °F 57% 30.30 in 10.0 mi Calm Calm - N/A   Mostly Cloudy
3:55 PM 79.3 °F - 63.3 °F 58% 30.30 in 10.0 mi Calm Calm - N/A   Scattered Clouds
4:15 PM 80.4 °F 81.6 °F 62.4 °F 54% 30.30 in 10.0 mi WSW 4.6 mph - N/A   Scattered Clouds
4:35 PM 79.7 °F - 63.0 °F 56% 30.29 in 10.0 mi WSW 5.8 mph - N/A   Scattered Clouds
4:55 PM 77.7 °F - 63.7 °F 62% 30.29 in 10.0 mi WSW 5.8 mph - N/A   Scattered Clouds
5:15 PM 77.4 °F - 63.9 °F 63% 30.30 in 10.0 mi WSW 3.5 mph - N/A   Mostly Cloudy
5:35 PM 77.7 °F - 63.7 °F 62% 30.29 in 10.0 mi WSW 4.6 mph - N/A   Scattered Clouds
5:55 PM 77.5 °F - 64.8 °F 65% 30.30 in 10.0 mi WSW 5.8 mph - N/A   Clear
6:15 PM 77.4 °F - 64.9 °F 65% 30.30 in 10.0 mi West 4.6 mph - N/A   Clear
6:35 PM 77.0 °F - 65.3 °F 67% 30.30 in 10.0 mi West 4.6 mph - N/A   Clear
6:55 PM 76.3 °F - 64.9 °F 68% 30.30 in 10.0 mi West 3.5 mph - N/A   Clear
7:15 PM 74.5 °F - 66.2 °F 75% 30.30 in 10.0 mi Calm Calm - N/A   Scattered Clouds
7:35 PM 72.7 °F - 65.5 °F 78% 30.30 in 10.0 mi Calm Calm - N/A   Scattered Clouds
7:55 PM 70.0 °F - 64.6 °F 83% 30.30 in 10.0 mi Calm Calm - N/A   Scattered Clouds
8:15 PM 70.2 °F - 65.3 °F 85% 30.31 in 10.0 mi NW 3.5 mph - N/A   Mostly Cloudy
8:35 PM 70.2 °F - 63.9 °F 80% 30.32 in 10.0 mi Calm Calm - N/A   Mostly Cloudy
8:55 PM 68.0 °F - 64.4 °F 88% 30.32 in 10.0 mi Calm Calm - N/A   Mostly Cloudy
9:15 PM 66.4 °F - 64.0 °F 92% 30.33 in 10.0 mi Calm Calm - N/A   Scattered Clouds
9:35 PM 65.8 °F - 63.5 °F 92% 30.34 in 10.0 mi Calm Calm - N/A   Clear
9:55 PM 64.6 °F - 63.1 °F 95% 30.35 in 10.0 mi Calm Calm - N/A   Scattered Clouds
10:15 PM 64.4 °F - 63.1 °F 96% 30.35 in 10.0 mi Calm Calm - N/A   Mostly Cloudy
10:35 PM 64.8 °F - 63.5 °F 96% 30.36 in 10.0 mi Calm Calm - N/A   Overcast
10:55 PM 65.3 °F - 63.1 °F 93% 30.37 in 10.0 mi Calm Calm - N/A   Overcast
11:15 PM 64.4 °F - 63.5 °F 97% 30.37 in 10.0 mi Calm Calm - N/A   Mostly Cloudy
11:35 PM 64.0 °F - 62.1 °F 93% 30.37 in 10.0 mi Calm Calm - N/A   Scattered Clouds
11:55 PM 62.6 °F - 61.7 °F 97% 30.37 in 10.0 mi Calm Calm - N/A   Scattered Clouds